Weather History for KJDN - July, 2014

Change the Weather History Date:

Thursday, July 24, 2014

  Actual Average Record
Temperature  
Mean Temperature 74 °F 71 °F  
Max Temperature 99 °F 87 °F - ()
Min Temperature 48 °F 56 °F - ()
Degree Days  
Heating Degree Days 0 1  
Month to date heating degree days 5 25  
Since 1 June heating degree days 135 150  
Since 1 July heating degree days 5 25  
Cooling Degree Days 9 7  
Month to date cooling degree days 179 129  
Year to date cooling degree days 229 183  
Since 1 June cooling degree days 204 177  
Growing Degree Days 28 (Base 50)    
Moisture  
Dew Point 55 °F    
Average Humidity 55    
Maximum Humidity 84    
Minimum Humidity 26    
Precipitation  
Precipitation 0.04 in 0.04 in - ()
Month to date precipitation 0.39 1.59  
Year to date precipitation 5.35 8.45  
Snow  
Snow 0.00 in - - ()
Month to date snowfall 0.0  
Since 1 June snowfall 0.0  
Since 1 July snowfall 0.0  
Snow Depth 0.00 in    
Sea Level Pressure  
Sea Level Pressure 29.72 in    
Wind  
Wind Speed 11 mph (NNE)    
Max Wind Speed 47 mph    
Max Gust Speed 57 mph    
T = Trace of Precipitation, MM = Missing Value Source: NWS Daily Summary

Daily Weather History Graph

Daily Weather History Graph

Search for Another Location

Airport or City:

Trip Planner

Search our weather history database for the weather conditions in past years. The results will help you decide how hot, cold, wet, or windy it might be!

Date:

Astronomy

Jul. 24, 2014 Rise Set
Actual Time 5:36 AM MDT 8:51 PM MDT
Civil Twilight 4:59 AM MDT 9:28 PM MDT
Nautical Twilight 4:10 AM MDT 10:16 PM MDT
Astronomical Twilight 3:09 AM MDT 11:16 PM MDT
Moon 3:48 AM MDT (7/24) 7:06 PM MDT (7/24)
Length of Visible Light 16h 28m
Length of Day
15h 14m
Waning Crescent, 4% of the Moon is Illuminated
Jul 24
Waning Crescent
Jul 26
New
Aug 3
First Quarter
Aug 10
Full
Aug 17
Last Quarter

Hourly Weather History & Observations

Time (MDT) Temp. Heat Index Dew Point Humidity Pressure Visibility Wind Dir Wind Speed Gust Speed Precip Events Conditions
12:48 AM 75.9 °F - 62.1 °F 62% 29.75 in - East 13.8 mph - N/A   Unknown
1:48 AM 75.0 °F - 62.1 °F 64% 29.78 in - NW 12.7 mph 17.3 mph N/A   Unknown
2:13 AM 70.0 °F - 64.9 °F 84% 29.81 in - North 12.7 mph 33.4 mph N/A   Unknown
2:48 AM 72.0 °F - 64.0 °F 76% 29.71 in - East 9.2 mph - N/A   Unknown
3:48 AM 69.1 °F - 63.0 °F 81% 29.72 in - Calm Calm - N/A   Unknown
4:48 AM 69.1 °F - 64.0 °F 84% 29.76 in - NE 8.1 mph - N/A   Unknown
5:48 AM 66.9 °F - 61.0 °F 81% 29.75 in - NE 16.1 mph 23.0 mph N/A   Unknown
6:48 AM 68.0 °F - 59.0 °F 73% 29.75 in - East 13.8 mph - N/A   Unknown
7:48 AM 70.0 °F - 59.0 °F 68% 29.74 in - East 11.5 mph - N/A   Unknown
8:48 AM 75.9 °F - 57.9 °F 54% 29.72 in - ESE 10.4 mph - N/A   Unknown
9:48 AM 79.0 °F - 57.0 °F 47% 29.70 in - ESE 9.2 mph - N/A   Unknown
10:48 AM 82.9 °F 82.4 °F 57.0 °F 41% 29.66 in - ESE 10.4 mph - N/A   Unknown
11:48 AM 87.1 °F 85.9 °F 57.0 °F 36% 29.68 in - South 11.5 mph - N/A   Unknown
12:48 PM 91.0 °F 89.7 °F 57.0 °F 32% 29.64 in - South 6.9 mph 18.4 mph N/A   Unknown
1:48 PM 93.9 °F 92.2 °F 55.9 °F 28% 29.61 in - SSW 11.5 mph 16.1 mph N/A   Unknown
2:48 PM 96.8 °F 94.4 °F 53.6 °F 23% 29.67 in - West 12.7 mph 27.6 mph N/A   Unknown
3:48 PM 93.9 °F 91.4 °F 53.1 °F 25% 29.57 in - WSW 10.4 mph - N/A   Unknown
4:06 PM 91.9 °F 90.0 °F 55.0 °F 29% 29.64 in - NW 19.6 mph - N/A   Unknown
4:43 PM 78.1 °F - 66.0 °F 66% 29.70 in - WNW 6.9 mph - 0.02 in   Unknown
4:48 PM 82.0 °F 85.5 °F 69.1 °F 65% 29.64 in - WNW 11.5 mph - 0.04 in   Unknown
5:48 PM 75.0 °F - 50.0 °F 41% 29.73 in - NW 28.8 mph 48.3 mph N/A   Unknown
6:48 PM 77.0 °F - 46.9 °F 34% 29.73 in - NW 23.0 mph 32.2 mph N/A   Unknown
7:48 PM 75.9 °F - 42.1 °F 30% 29.73 in - NW 19.6 mph 28.8 mph N/A   Unknown
8:48 PM 71.1 °F - 37.0 °F 29% 29.76 in - NNW 16.1 mph - N/A   Unknown
9:48 PM 63.0 °F - 39.9 °F 43% 29.83 in - NE 8.1 mph - N/A   Unknown
10:48 PM 59.0 °F - 41.0 °F 51% 29.86 in - NE 3.5 mph - N/A   Unknown
11:48 PM 53.1 °F - 39.9 °F 61% 29.88 in - West 3.5 mph - N/A   Unknown